EW8178 Weather Reports


time (UTC)temp
C
wind
direction
speed
KPH
gust
KPH
rain 1hr
cm
rain 24hr
cm
rain mn
cm
humidity
%
barometer
mb
20260906051523 13 81 1.6 12.9 0.00 0.00 0.00 85 1013.4
20260906050017 13 75 1.6 6.4 0.00 0.00 0.00 86 1013.4
20260906044516 13 77 1.6 6.4 0.00 0.00 0.00 86 1013.3
20260906043015 13 80 1.6 11.3 0.00 0.00 0.00 86 1013.1
20260906041521 13 76 3.2 12.9 0.00 0.00 0.00 86 1013.1
20260906040011 13 117 1.6 19.3 0.00 0.00 0.00 86 1012.9
20260906034510 13 97 3.2 14.5 0.00 0.00 0.00 86 1012.8
20260906033006 14 66 1.6 9.7 0.00 0.00 0.00 86 1012.7
20260906031504 14 78 1.6 9.7 0.00 0.00 0.00 85 1012.6
20260906030101 14 101 3.2 11.3 0.00 0.00 0.00 85 1012.5
20260906024615 14 111 4.8 14.5 0.00 0.00 0.00 84 1012.5
20260906023058 15 107 3.2 12.9 0.00 0.00 0.00 84 1012.3
20260906021556 15 55 3.2 11.3 0.00 0.00 0.00 83 1012.3
20260906020026 15 84 1.6 6.4 0.00 0.00 0.00 82 1012.3
20260906014526 15 67 1.6 6.4 0.00 0.00 0.00 82 1012.3
20260906013027 15 95 0.0 6.4 0.00 0.00 0.00 81 1012.3
20260906011520 15 95 0.0 4.8 0.00 0.00 0.00 81 1012.3
20260906010016 15 94 1.6 6.4 0.00 0.00 0.00 82 1012.3
20260906004517 15 81 0.0 11.3 0.00 0.00 0.00 82 1012.2
20260906003014 15 98 0.0 6.4 0.00 0.00 0.00 83 1012.1
20260906001511 15 94 0.0 9.7 0.00 0.00 0.00 83 1012.1
20260906000011 15 107 1.6 4.8 0.00 0.00 0.00 83 1012.1
20260905234507 15 116 0.0 8.0 0.00 0.00 0.00 83 1012.1
20260905233012 16 76 0.0 9.7 0.00 0.00 0.00 83 1011.9
20260905231600 16 122 1.6 11.3 0.00 0.00 0.00 82 1012.0
20260905230128 16 96 0.0 11.3 0.00 0.00 0.00 81 1011.8
20260905224559 16 103 1.6 11.3 0.00 0.00 0.00 81 1011.7
20260905223057 16 91 1.6 9.7 0.00 0.00 0.00 80 1011.7
20260905221557 16 55 0.0 4.8 0.00 0.00 0.00 80 1011.8
20260905220053 16 53 0.0 4.8 0.00 0.00 0.00 80 1011.7
20260905214551 16 62 1.6 4.8 0.00 0.00 0.00 79 1011.5
20260905213051 16 88 1.6 9.7 0.00 0.00 0.00 79 1011.6
20260905211554 16 61 0.0 6.4 0.00 0.00 0.00 79 1011.4
20260905210047 16 113 1.6 9.7 0.00 0.00 0.00 80 1011.4
20260905204545 16 85 0.0 9.7 0.00 0.00 0.00 81 1011.5
20260905203054 16 39 0.0 4.8 0.00 0.00 0.00 82 1011.3
20260905201542 16 35 0.0 4.8 0.00 0.00 0.00 82 1011.4
20260905200040 16 74 0.0 3.2 0.00 0.00 0.00 82 1011.1
20260905194535 16 61 1.6 6.4 0.00 0.00 0.00 82 1010.9
20260905193042 17 101 1.6 4.8 0.00 0.00 0.00 82 1010.8
20260905191532 17 16 0.0 3.2 0.00 0.00 0.00 81 1010.8
20260905190030 17 52 0.0 9.7 0.00 0.00 0.00 80 1010.6
20260905184525 17 91 1.6 9.7 0.00 0.00 0.00 79 1010.3
20260905183023 17 103 1.6 8.0 0.00 0.00 0.00 78 1010.2
20260905181524 17 89 1.6 9.7 0.00 0.00 0.00 78 1009.9
20260905180020 17 123 1.6 11.3 0.00 0.00 0.00 77 1009.9
20260905174515 17 128 3.2 12.9 0.00 0.00 0.00 77 1009.7
20260905173012 18 130 3.2 12.9 0.00 0.00 0.00 77 1009.4
20260905171511 18 86 3.2 16.1 0.00 0.00 0.00 76 1009.3
20260905170009 18 102 1.6 11.3 0.00 0.00 0.00 77 1009.3
20260905164534 19 81 3.2 9.7 0.00 0.00 0.00 76 1008.9
20260905163031 20 88 4.8 14.5 0.00 0.00 0.00 75 1008.6
20260905161525 20 127 1.6 14.5 0.00 0.00 0.00 75 1008.5
20260905160028 20 99 3.2 17.7 0.00 0.00 0.00 74 1008.4
20260905154520 21 116 3.2 14.5 0.00 0.00 0.00 73 1008.5
20260905153016 22 68 1.6 6.4 0.00 0.00 0.00 69 1008.4
20260905151600 23 109 3.2 12.9 0.00 0.00 0.00 64 1008.1
20260905150112 23 90 1.6 11.3 0.00 0.00 0.00 61 1008.0
20260905144554 24 202 3.2 14.5 0.00 0.00 0.00 60 1007.7
20260905143055 24 150 3.2 14.5 0.00 0.00 0.00 56 1007.6
20260905141554 25 135 1.6 9.7 0.00 0.00 0.00 54 1007.7
20260905140058 26 146 0.0 9.7 0.00 0.00 0.00 56 1007.8
20260905134555 26 130 0.0 6.4 0.00 0.00 0.00 52 1007.8
20260905133053 26 277 0.0 6.4 0.00 0.00 0.00 53 1007.7
20260905131555 27 279 3.2 8.0 0.00 0.00 0.00 52 1007.7
20260905130055 27 208 1.6 6.4 0.00 0.00 0.00 50 1007.6
20260905124559 27 198 1.6 9.7 0.00 0.00 0.00 51 1007.8
20260905123054 28 270 1.6 9.7 0.00 0.00 0.00 52 1007.9
20260905121530 28 214 1.6 6.4 0.00 0.00 0.00 49 1007.8
20260905120029 28 259 1.6 6.4 0.00 0.00 0.00 50 1007.8
20260905114524 27 255 0.0 11.3 0.00 0.00 0.00 53 1008.0
20260905113024 27 262 0.0 6.4 0.00 0.00 0.00 52 1007.8
20260905111527 27 252 1.6 9.7 0.00 0.00 0.00 55 1007.9
20260905110021 28 251 1.6 9.7 0.00 0.00 0.00 51 1007.8
20260905104515 27 256 0.0 11.3 0.00 0.00 0.00 54 1007.7
20260905103011 26 267 1.6 6.4 0.00 0.00 0.00 59 1007.9
20260905101507 25 250 0.0 8.0 0.00 0.00 0.00 64 1007.9
20260905100007 25 244 1.6 6.4 0.00 0.00 0.00 61 1007.9
20260905094505 25 244 1.6 4.8 0.00 0.00 0.00 60 1007.9
20260905093003 24 263 0.0 6.4 0.00 0.00 0.00 61 1007.9
20260905091501 24 247 1.6 6.4 0.00 0.00 0.00 56 1008.0
20260905090003 25 240 0.0 3.2 0.00 0.00 0.00 56 1007.9
20260905084601 25 249 1.6 6.4 0.00 0.00 0.00 55 1008.0
20260905083057 25 270 1.6 8.0 0.00 0.00 0.00 55 1007.8
20260905081556 25 328 0.0 4.8 0.00 0.00 0.00 56 1007.8
20260905080053 24 335 1.6 9.7 0.00 0.00 0.00 51 1007.6
20260905074551 23 245 1.6 4.8 0.00 0.00 0.00 54 1007.5
20260905073048 22 321 0.0 6.4 0.00 0.00 0.00 60 1007.5
20260905071548 21 317 0.0 3.2 0.00 0.00 0.00 62 1007.3
20260905070046 21 231 0.0 6.4 0.00 0.00 0.00 60 1007.3
20260905064646 21 273 1.6 6.4 0.00 0.00 0.00 64 1007.2
20260905063042 20 259 1.6 6.4 0.00 0.00 0.00 66 1007.1
20260905061547 19 245 1.6 8.0 0.00 0.00 0.00 68 1007.0
20260905060041 18 232 3.2 12.9 0.00 0.00 0.00 68 1007.1
20260905054540 17 333 0.0 4.8 0.00 0.00 0.00 67 1007.2
20260905053038 16 286 0.0 6.4 0.00 0.00 0.00 69 1007.1